SVA1046 OEJN-OERK

Flight info

Callsign SVA1046
Flight time 1h 2m
Altitude 35000
Route EGREP T532 ORDEM
Aircraft B77W/H-SDE1E2E3FGHIJ2J3J4J5M1RWXYZ/LB1D1

Departure

Time 2026-04-29 18:44
Airport King Abdulaziz International Airport (OEJN)

Arrival

Time 2026-04-29 19:47
Airport King Khalid International Airport (OERK)
Time Latitude Longitude Altitude Speed Heading
2026-04-29 18:24 21.66348 39.17706 35 ft 0 kts 190°
2026-04-29 18:36 21.66352 39.17707 35 ft 3 kts 189°
2026-04-29 18:37 21.66378 39.17710 35 ft 4 kts 177°
2026-04-29 18:37 21.66405 39.17705 35 ft 4 kts 160°
2026-04-29 18:37 21.66428 39.17692 35 ft 4 kts 133°
2026-04-29 18:37 21.66438 39.17676 35 ft 0 kts 100°
2026-04-29 18:41 21.66441 39.17751 35 ft 10 kts 65°
2026-04-29 18:41 21.66494 39.17769 35 ft 8 kts 348°
2026-04-29 18:42 21.66552 39.17769 35 ft 9 kts 22°
2026-04-29 18:42 21.66592 39.17824 35 ft 10 kts 65°
2026-04-29 18:42 21.66617 39.17895 37 ft 10 kts 69°
2026-04-29 18:42 21.66644 39.17972 37 ft 12 kts 69°
2026-04-29 18:43 21.66706 39.18024 37 ft 12 kts 358°
2026-04-29 18:43 21.66737 39.18015 37 ft 3 kts 340°
2026-04-29 18:43 21.66939 39.17935 39 ft 71 kts 340°
2026-04-29 18:43 21.67673 39.17645 39 ft 150 kts 340°
2026-04-29 18:44 21.68781 39.17200 326 ft 184 kts 339°
2026-04-29 18:44 21.70031 39.16704 901 ft 201 kts 339°
2026-04-29 18:44 21.71419 39.16340 1596 ft 207 kts 353°
2026-04-29 18:44 21.72866 39.16129 2388 ft 213 kts 351°
2026-04-29 18:45 21.74384 39.16044 2903 ft 233 kts
2026-04-29 18:45 21.75987 39.16705 3275 ft 259 kts 31°
2026-04-29 18:45 21.77495 39.17853 4048 ft 270 kts 34°
2026-04-29 18:45 21.79039 39.19047 4946 ft 276 kts 34°
2026-04-29 18:46 21.80606 39.20268 5702 ft 281 kts 34°
2026-04-29 18:46 21.82209 39.21514 6024 ft 287 kts 33°
2026-04-29 18:46 21.83810 39.22830 6255 ft 292 kts 38°
2026-04-29 18:46 21.85349 39.24274 7186 ft 293 kts 40°
2026-04-29 18:47 21.86873 39.25749 8109 ft 296 kts 40°
2026-04-29 18:47 21.88400 39.27229 8933 ft 301 kts 40°
2026-04-29 18:47 21.89971 39.28749 9721 ft 307 kts 40°
2026-04-29 18:47 21.91578 39.30295 10446 ft 316 kts 40°
2026-04-29 18:48 21.93267 39.31962 10679 ft 340 kts 46°
2026-04-29 18:48 21.94628 39.34150 10877 ft 365 kts 62°
2026-04-29 18:48 21.95809 39.36667 11333 ft 383 kts 63°
2026-04-29 18:48 21.97026 39.39279 11977 ft 397 kts 63°
2026-04-29 18:49 21.98273 39.41944 12745 ft 408 kts 63°
2026-04-29 18:49 21.99568 39.44698 13633 ft 415 kts 63°
2026-04-29 18:49 22.00891 39.47490 14554 ft 420 kts 62°
2026-04-29 18:49 22.02232 39.50306 15442 ft 426 kts 62°
2026-04-29 18:50 22.03589 39.53169 16298 ft 431 kts 62°
2026-04-29 18:50 22.04960 39.56064 17145 ft 437 kts 61°
2026-04-29 18:50 22.06354 39.58999 17914 ft 443 kts 61°
2026-04-29 18:50 22.07775 39.61979 18657 ft 449 kts 60°
2026-04-29 18:51 22.09212 39.64992 19443 ft 454 kts 60°
2026-04-29 18:51 22.10665 39.68037 20209 ft 459 kts 60°
2026-04-29 18:51 22.12136 39.71114 20919 ft 464 kts 60°
2026-04-29 18:51 22.13624 39.74226 21581 ft 469 kts 60°
2026-04-29 18:52 22.15127 39.77371 22264 ft 474 kts 60°
2026-04-29 18:52 22.16642 39.80544 22935 ft 478 kts 60°
2026-04-29 18:52 22.18170 39.83747 23573 ft 483 kts 60°
2026-04-29 18:52 22.19713 39.86985 24195 ft 487 kts 60°
2026-04-29 18:53 22.21270 39.90256 24736 ft 493 kts 60°
2026-04-29 18:53 22.22842 39.93557 25170 ft 500 kts 61°
2026-04-29 18:53 22.24449 39.96930 25594 ft 507 kts 61°
2026-04-29 18:53 22.26070 40.00339 26012 ft 513 kts 61°
2026-04-29 18:54 22.27710 40.03788 26399 ft 519 kts 62°
2026-04-29 18:54 22.29365 40.07278 26819 ft 525 kts 62°
2026-04-29 18:54 22.31014 40.10759 27230 ft 531 kts 62°
2026-04-29 18:54 22.32701 40.14326 27616 ft 536 kts 62°
2026-04-29 18:55 22.34429 40.17970 27980 ft 541 kts 62°
2026-04-29 18:55 22.36151 40.21608 28306 ft 547 kts 62°
2026-04-29 18:55 22.37867 40.25238 28601 ft 551 kts 62°
2026-04-29 18:55 22.39617 40.28940 28893 ft 556 kts 62°
2026-04-29 18:56 22.41382 40.32676 29189 ft 560 kts 62°
2026-04-29 18:56 22.43158 40.36438 29500 ft 563 kts 63°
2026-04-29 18:56 22.44947 40.40230 29762 ft 568 kts 63°
2026-04-29 18:56 22.46748 40.44057 29967 ft 573 kts 63°
2026-04-29 18:57 22.48566 40.47916 30209 ft 576 kts 63°
2026-04-29 18:57 22.50384 40.51780 30563 ft 576 kts 63°
2026-04-29 18:57 22.52195 40.55629 31041 ft 573 kts 63°
2026-04-29 18:57 22.53996 40.59464 31549 ft 570 kts 63°
2026-04-29 18:58 22.55790 40.63285 32042 ft 569 kts 63°
2026-04-29 18:58 22.57577 40.67096 32520 ft 567 kts 63°
2026-04-29 18:58 22.59353 40.70889 33003 ft 565 kts 63°
2026-04-29 18:58 22.61128 40.74679 33467 ft 563 kts 63°
2026-04-29 18:59 22.62895 40.78454 33928 ft 562 kts 62°
2026-04-29 18:59 22.64658 40.82223 34367 ft 561 kts 62°
2026-04-29 18:59 22.66419 40.85990 34777 ft 560 kts 63°
2026-04-29 18:59 22.68174 40.89753 35130 ft 560 kts 63°
2026-04-29 19:00 22.71698 40.97309 35098 ft 560 kts 63°
2026-04-29 19:00 22.75195 41.04819 35076 ft 557 kts 63°
2026-04-29 19:01 22.78676 41.12299 35079 ft 555 kts 63°
2026-04-29 19:01 22.82147 41.19769 35082 ft 555 kts 63°
2026-04-29 19:02 22.85030 41.25987 35081 ft 556 kts 63°
2026-04-29 19:02 22.89078 41.34732 35074 ft 558 kts 63°
2026-04-29 19:03 22.92560 41.42269 35071 ft 559 kts 63°
2026-04-29 19:03 22.96041 41.49812 35079 ft 559 kts 63°
2026-04-29 19:04 22.99501 41.57321 35083 ft 560 kts 63°
2026-04-29 19:04 23.02984 41.64888 35099 ft 561 kts 63°
2026-04-29 19:05 23.06465 41.72465 35070 ft 561 kts 63°
2026-04-29 19:05 23.09950 41.80060 35063 ft 562 kts 63°
2026-04-29 19:06 23.13431 41.87670 35063 ft 562 kts 63°
2026-04-29 19:07 23.18651 41.99090 35057 ft 562 kts 63°
2026-04-29 19:07 23.22128 42.06710 35058 ft 562 kts 63°
2026-04-29 19:08 23.25592 42.14319 35051 ft 561 kts 63°
2026-04-29 19:08 23.29053 42.21930 35044 ft 562 kts 63°
2026-04-29 19:09 23.32495 42.29512 35048 ft 562 kts 63°
2026-04-29 19:09 23.35952 42.37137 35046 ft 562 kts 63°
2026-04-29 19:10 23.39406 42.44770 35041 ft 562 kts 64°
2026-04-29 19:10 23.42855 42.52407 35034 ft 562 kts 64°
2026-04-29 19:11 23.45726 42.58767 35035 ft 562 kts 64°
2026-04-29 19:11 23.49168 42.66406 35033 ft 562 kts 64°
2026-04-29 19:12 23.52605 42.74049 35020 ft 562 kts 64°
2026-04-29 19:12 23.56042 42.81702 35016 ft 562 kts 64°
2026-04-29 19:13 23.59469 42.89348 35009 ft 561 kts 64°
2026-04-29 19:13 23.62896 42.97004 35012 ft 561 kts 64°
2026-04-29 19:14 23.66313 43.04652 35007 ft 561 kts 64°
2026-04-29 19:14 23.69723 43.12293 35015 ft 560 kts 64°
2026-04-29 19:15 23.73129 43.19940 34985 ft 560 kts 64°
2026-04-29 19:15 23.76526 43.27579 34995 ft 559 kts 64°
2026-04-29 19:16 23.79901 43.35183 34987 ft 559 kts 64°
2026-04-29 19:16 23.83291 43.42827 34996 ft 559 kts 64°
2026-04-29 19:17 23.86676 43.50475 35003 ft 559 kts 64°
2026-04-29 19:17 23.90060 43.58135 34987 ft 560 kts 64°
2026-04-29 19:18 23.93446 43.65810 35002 ft 561 kts 64°
2026-04-29 19:18 23.96831 43.73500 35001 ft 561 kts 64°
2026-04-29 19:19 24.00216 43.81201 35002 ft 562 kts 64°
2026-04-29 19:19 24.03598 43.88905 35000 ft 562 kts 64°
2026-04-29 19:20 24.06959 43.96575 34983 ft 562 kts 64°
2026-04-29 19:20 24.10329 44.04276 35000 ft 561 kts 64°
2026-04-29 19:21 24.13694 44.11985 35001 ft 560 kts 64°
2026-04-29 19:21 24.17057 44.19699 34985 ft 561 kts 64°
2026-04-29 19:22 24.20416 44.27413 34983 ft 561 kts 64°
2026-04-29 19:22 24.23771 44.35136 34999 ft 561 kts 64°
2026-04-29 19:23 24.27124 44.42867 35000 ft 562 kts 65°
2026-04-29 19:23 24.30476 44.50608 34980 ft 562 kts 65°
2026-04-29 19:24 24.33805 44.58307 35000 ft 563 kts 65°
2026-04-29 19:24 24.37158 44.66080 34986 ft 562 kts 65°
2026-04-29 19:25 24.40503 44.73840 34982 ft 563 kts 65°
2026-04-29 19:25 24.43846 44.81612 35003 ft 564 kts 65°
2026-04-29 19:26 24.47192 44.89407 34980 ft 565 kts 65°
2026-04-29 19:26 24.50537 44.97207 34999 ft 564 kts 65°
2026-04-29 19:26 24.52194 45.01076 34856 ft 556 kts 65°
2026-04-29 19:27 24.53826 45.04892 34442 ft 549 kts 65°
2026-04-29 19:27 24.55437 45.08663 33313 ft 544 kts 65°
2026-04-29 19:27 24.57053 45.12450 31624 ft 552 kts 65°
2026-04-29 19:27 24.58693 45.16296 29774 ft 560 kts 65°
2026-04-29 19:28 24.60347 45.20177 28284 ft 559 kts 65°
2026-04-29 19:28 24.61982 45.24016 27118 ft 549 kts 65°
2026-04-29 19:28 24.63577 45.27762 26161 ft 534 kts 65°
2026-04-29 19:28 24.65129 45.31411 25240 ft 519 kts 65°
2026-04-29 19:29 24.66639 45.34965 24263 ft 508 kts 65°
2026-04-29 19:29 24.68105 45.38419 23634 ft 489 kts 65°
2026-04-29 19:29 24.69500 45.41706 23038 ft 471 kts 65°
2026-04-29 19:29 24.70862 45.44919 22444 ft 457 kts 65°
2026-04-29 19:30 24.72188 45.48051 21883 ft 448 kts 65°
2026-04-29 19:30 24.73497 45.51144 21335 ft 446 kts 65°
2026-04-29 19:30 24.74820 45.54273 20787 ft 458 kts 65°
2026-04-29 19:30 24.76193 45.57525 20205 ft 473 kts 65°
2026-04-29 19:31 24.77572 45.60791 19583 ft 465 kts 65°
2026-04-29 19:31 24.78913 45.63967 18967 ft 450 kts 65°
2026-04-29 19:31 24.80208 45.67031 18392 ft 433 kts 65°
2026-04-29 19:31 24.81460 45.70000 17832 ft 421 kts 65°
2026-04-29 19:32 24.82679 45.72893 17292 ft 414 kts 66°
2026-04-29 19:32 24.83889 45.75773 16770 ft 416 kts 66°
2026-04-29 19:32 24.85123 45.78712 16222 ft 432 kts 66°
2026-04-29 19:32 24.86394 45.81743 15642 ft 436 kts 66°
2026-04-29 19:33 24.87651 45.84736 15031 ft 424 kts 66°
2026-04-29 19:33 24.88867 45.87624 14456 ft 408 kts 66°
2026-04-29 19:33 24.90036 45.90407 13904 ft 393 kts 67°
2026-04-29 19:33 24.91170 45.93108 13382 ft 388 kts 67°
2026-04-29 19:34 24.92316 45.95842 12860 ft 399 kts 67°
2026-04-29 19:34 24.93495 45.98666 12312 ft 410 kts 67°
2026-04-29 19:34 24.94693 46.01536 11719 ft 412 kts 67°
2026-04-29 19:34 24.95886 46.04392 11147 ft 410 kts 67°
2026-04-29 19:35 24.97072 46.07220 10886 ft 398 kts 67°
2026-04-29 19:35 24.98201 46.09912 10665 ft 371 kts 67°
2026-04-29 19:35 24.99241 46.12392 10518 ft 342 kts 67°
2026-04-29 19:35 25.00198 46.14683 10373 ft 317 kts 68°
2026-04-29 19:36 25.01072 46.16783 10253 ft 294 kts 68°
2026-04-29 19:36 25.01896 46.18758 10132 ft 276 kts 68°
2026-04-29 19:36 25.02712 46.20725 10069 ft 289 kts 68°
2026-04-29 19:36 25.03572 46.22799 9845 ft 304 kts 67°
2026-04-29 19:37 25.04459 46.24936 9512 ft 308 kts 67°
2026-04-29 19:37 25.05046 46.26348 9279 ft 301 kts 67°
2026-04-29 19:37 25.06171 46.29052 8833 ft 283 kts 67°
2026-04-29 19:37 25.06987 46.31015 8540 ft 280 kts 67°
2026-04-29 19:38 25.07789 46.32954 8232 ft 279 kts 67°
2026-04-29 19:38 25.08589 46.34925 7859 ft 281 kts 67°
2026-04-29 19:38 25.09383 46.36889 7523 ft 279 kts 66°
2026-04-29 19:38 25.10475 46.38619 7082 ft 279 kts 39°
2026-04-29 19:39 25.12084 46.39684 7067 ft 264 kts 29°
2026-04-29 19:39 25.13676 46.40744 7071 ft 272 kts 33°
2026-04-29 19:39 25.15244 46.41963 7087 ft 279 kts 38°
2026-04-29 19:39 25.16777 46.43332 6805 ft 287 kts 41°
2026-04-29 19:40 25.18229 46.44832 6469 ft 285 kts 45°
2026-04-29 19:40 25.19558 46.46421 6145 ft 275 kts 50°
2026-04-29 19:40 25.20673 46.48073 5826 ft 263 kts 65°
2026-04-29 19:40 25.21041 46.49988 5542 ft 255 kts 95°
2026-04-29 19:41 25.20508 46.51880 5318 ft 264 kts 121°
2026-04-29 19:41 25.19298 46.53354 5212 ft 257 kts 145°
2026-04-29 19:41 25.17790 46.54314 5098 ft 244 kts 149°
2026-04-29 19:41 25.16363 46.55209 5014 ft 233 kts 149°
2026-04-29 19:42 25.14999 46.56074 4974 ft 219 kts 148°
2026-04-29 19:42 25.14128 46.56635 4957 ft 212 kts 148°
2026-04-29 19:42 25.12434 46.57730 4982 ft 211 kts 148°
2026-04-29 19:42 25.11191 46.58524 4988 ft 203 kts 148°
2026-04-29 19:43 25.09981 46.59294 4942 ft 199 kts 148°
2026-04-29 19:43 25.08786 46.60056 4671 ft 196 kts 148°
2026-04-29 19:43 25.07625 46.60793 4432 ft 186 kts 148°
2026-04-29 19:43 25.06508 46.61505 4194 ft 188 kts 148°
2026-04-29 19:44 25.05359 46.62237 3945 ft 192 kts 148°
2026-04-29 19:44 25.04215 46.62965 3717 ft 186 kts 149°
2026-04-29 19:44 25.03111 46.63666 3424 ft 178 kts 149°
2026-04-29 19:44 25.02092 46.64314 3194 ft 160 kts 148°
2026-04-29 19:45 25.01171 46.64900 3021 ft 154 kts 149°
2026-04-29 19:45 25.00235 46.65503 2792 ft 153 kts 148°
2026-04-29 19:45 24.99328 46.66079 2609 ft 150 kts 149°
2026-04-29 19:45 24.98429 46.66649 2409 ft 148 kts 148°
2026-04-29 19:46 24.97536 46.67213 2207 ft 147 kts 149°
2026-04-29 19:46 24.96654 46.67769 2039 ft 143 kts 149°
2026-04-29 19:46 24.95891 46.68252 2033 ft 106 kts 150°
2026-04-29 19:46 24.95382 46.68576 2034 ft 70 kts 149°
2026-04-29 19:47 24.95111 46.68751 2034 ft 29 kts 147°
2026-04-29 19:47 24.94990 46.68899 2036 ft 15 kts 121°
2026-04-29 19:47 24.94962 46.69009 2035 ft 16 kts 90°
2026-04-29 19:47 24.94988 46.69132 2035 ft 16 kts 93°
2026-04-29 19:48 24.94907 46.69215 2039 ft 17 kts 150°
2026-04-29 19:48 24.94841 46.69257 2039 ft 17 kts 150°
2026-04-29 19:48 24.94714 46.69337 2042 ft 15 kts 150°
2026-04-29 19:48 24.94622 46.69395 2035 ft 15 kts 150°
2026-04-29 19:49 24.94531 46.69454 2037 ft 15 kts 143°
2026-04-29 19:49 24.94531 46.69557 2036 ft 15 kts 59°
2026-04-29 19:49 24.94585 46.69656 2036 ft 15 kts 59°
2026-04-29 19:49 24.94639 46.69756 2038 ft 15 kts 60°
2026-04-29 19:50 24.94691 46.69856 2036 ft 15 kts 60°
2026-04-29 19:50 24.94742 46.69955 2040 ft 15 kts 60°
2026-04-29 19:50 24.94794 46.70056 2036 ft 15 kts 60°
2026-04-29 19:50 24.94846 46.70157 2045 ft 15 kts 60°
2026-04-29 19:51 24.94898 46.70257 2040 ft 15 kts 60°
2026-04-29 19:51 24.94950 46.70358 2039 ft 15 kts 59°
2026-04-29 19:51 24.95005 46.70456 2036 ft 15 kts 59°
2026-04-29 19:51 24.95057 46.70556 2036 ft 15 kts 60°
2026-04-29 19:52 24.95110 46.70656 2036 ft 15 kts 60°
2026-04-29 19:52 24.95162 46.70757 2036 ft 15 kts 60°
2026-04-29 19:52 24.95214 46.70857 2036 ft 15 kts 60°
2026-04-29 19:52 24.95267 46.70956 2036 ft 15 kts 59°
2026-04-29 19:53 24.95342 46.71018 2039 ft 14 kts 348°
2026-04-29 19:53 24.95436 46.70964 2036 ft 18 kts 329°
2026-04-29 19:53 24.95545 46.70894 2036 ft 18 kts 330°
2026-04-29 19:53 24.95654 46.70825 2035 ft 18 kts 330°
2026-04-29 19:54 24.95789 46.70742 2037 ft 10 kts 330°
2026-04-29 19:54 24.95847 46.70705 2038 ft 10 kts 330°
2026-04-29 19:54 24.95915 46.70661 2037 ft 16 kts 329°
2026-04-29 19:55 24.96025 46.70590 2035 ft 16 kts 330°
2026-04-29 19:55 24.96074 46.70521 2037 ft 9 kts 258°
2026-04-29 19:55 24.96067 46.70455 2035 ft 9 kts 282°
2026-04-29 19:55 24.96091 46.70396 2038 ft 6 kts 298°
2026-04-29 19:56 24.96102 46.70373 2035 ft 0 kts 298°
2026-04-29 19:56 24.96103 46.70373 2035 ft 0 kts 298°